| time (UTC) | temp F | wind direction | speed MPH | gust MPH | rain 1hr in | rain 24hr in | rain mn in | humidity % | barometer mb |
| 20260904033502 | 59 | 260 | 3.0 | 0.0 | 0.00 | 0.00 | 0.00 | 82 | 1017.0 |
| 20260904030502 | 59 | 270 | 6.0 | 0.0 | 0.00 | 0.00 | 0.00 | 82 | 1017.0 |
| 20260904023502 | 59 | 250 | 5.0 | 0.0 | 0.00 | 0.00 | 0.00 | 82 | 1017.0 |
| 20260904020502 | 61 | 260 | 6.0 | 0.0 | 0.00 | 0.00 | 0.00 | 77 | 1017.0 |
| 20260904013502 | 61 | 210 | 5.0 | 0.0 | 0.00 | 0.00 | 0.00 | 77 | 1016.0 |
| 20260904010502 | 61 | 220 | 5.0 | 0.0 | 0.00 | 0.00 | 0.00 | 77 | 1017.0 |
| 20260904003503 | 61 | 240 | 6.0 | 0.0 | 0.00 | 0.00 | 0.00 | 77 | 1017.0 |
| 20260904000502 | 61 | 240 | 5.0 | 0.0 | 0.00 | 0.00 | 0.00 | 83 | 1017.0 |
| 20260903233502 | 61 | 280 | 5.0 | 0.0 | 0.00 | 0.00 | 0.00 | 83 | 1017.0 |
| 20260903230502 | 63 | 270 | 7.0 | 0.0 | 0.00 | 0.00 | 0.00 | 73 | 1017.0 |
| 20260903223503 | 64 | 240 | 5.0 | 0.0 | 0.00 | 0.00 | 0.00 | 68 | 1017.0 |
| 20260903220503 | 64 | 2.0 | 0.0 | 0.00 | 0.00 | 0.00 | 73 | 1017.0 | |
| 20260903213502 | 64 | 2.0 | 0.0 | 0.00 | 0.00 | 0.00 | 73 | 1017.0 | |
| 20260903210502 | 70 | 240 | 5.0 | 0.0 | 0.00 | 0.00 | 0.00 | ||
| 20260903203503 | 70 | 240 | 6.0 | 0.0 | 0.00 | 0.00 | 0.00 | 57 | 1017.0 |
| 20260903200502 | 70 | 220 | 3.0 | 0.0 | 0.00 | 0.00 | 0.00 | 57 | 1017.0 |
| 20260903193501 | 70 | 220 | 5.0 | 0.0 | 0.00 | 0.00 | 0.00 | 57 | 1017.0 |
| 20260903190502 | 68 | 230 | 5.0 | 0.0 | 0.00 | 0.00 | 0.00 | 60 | 1017.0 |
| 20260903183502 | 68 | 2.0 | 0.0 | 0.00 | 0.00 | 0.00 | 60 | 1017.0 | |
| 20260903180502 | 72 | 330 | 5.0 | 0.0 | 0.00 | 0.00 | 0.00 | 50 | 1017.0 |
| 20260903173502 | 73 | 330 | 5.0 | 0.0 | 0.00 | 0.00 | 0.00 | 47 | 1017.0 |
| 20260903170502 | 75 | 360 | 3.0 | 0.0 | 0.00 | 0.00 | 0.00 | 41 | 1017.0 |
| 20260903163502 | 75 | 360 | 6.0 | 0.0 | 0.00 | 0.00 | 0.00 | 44 | 1017.0 |
| 20260903160502 | 77 | 360 | 3.0 | 0.0 | 0.00 | 0.00 | 0.00 | 42 | 1016.0 |
| 20260903153502 | 77 | 10 | 3.0 | 0.0 | 0.00 | 0.00 | 0.00 | 42 | 1016.0 |
| 20260903150502 | 79 | 350 | 5.0 | 0.0 | 0.00 | 0.00 | 0.00 | 39 | 1016.0 |
| 20260903143502 | 79 | 340 | 3.0 | 0.0 | 0.00 | 0.00 | 0.00 | 37 | 1017.0 |
| 20260903140502 | 79 | 360 | 6.0 | 0.0 | 0.00 | 0.00 | 0.00 | 39 | 1017.0 |
| 20260903133501 | 79 | 320 | 6.0 | 0.0 | 0.00 | 0.00 | 0.00 | 37 | 1017.0 |
| 20260903130502 | 79 | 6.0 | 0.0 | 0.00 | 0.00 | 0.00 | 39 | 1017.0 | |
| 20260903123502 | 79 | 350 | 7.0 | 0.0 | 0.00 | 0.00 | 0.00 | 39 | 1017.0 |
| 20260903120502 | 79 | 330 | 8.0 | 0.0 | 0.00 | 0.00 | 0.00 | 39 | 1018.0 |
| 20260903113502 | 77 | 320 | 8.0 | 0.0 | 0.00 | 0.00 | 0.00 | 42 | 1018.0 |
| 20260903110502 | 77 | 6.0 | 0.0 | 0.00 | 0.00 | 0.00 | 44 | 1018.0 | |
| 20260903103503 | 75 | 320 | 7.0 | 0.0 | 0.00 | 0.00 | 0.00 | 47 | 1019.0 |
| 20260903100503 | 77 | 290 | 7.0 | 0.0 | 0.00 | 0.00 | 0.00 | 44 | 1019.0 |
| 20260903093502 | 75 | 330 | 8.0 | 0.0 | 0.00 | 0.00 | 0.00 | 47 | 1019.0 |
| 20260903090502 | 75 | 320 | 7.0 | 0.0 | 0.00 | 0.00 | 0.00 | 50 | 1019.0 |
| 20260903083502 | 73 | 2.0 | 0.0 | 0.00 | 0.00 | 0.00 | 53 | 1020.0 | |
| 20260903080503 | 73 | 360 | 5.0 | 0.0 | 0.00 | 0.00 | 0.00 | 50 | 1020.0 |
| 20260903073502 | 73 | 6.0 | 0.0 | 0.00 | 0.00 | 0.00 | 53 | 1020.0 | |
| 20260903070502 | 70 | 310 | 7.0 | 0.0 | 0.00 | 0.00 | 0.00 | 64 | 1020.0 |
| 20260903063503 | 68 | 290 | 5.0 | 0.0 | 0.00 | 0.00 | 0.00 | 69 | 1019.0 |
| 20260903060502 | 64 | 250 | 3.0 | 0.0 | 0.00 | 0.00 | 0.00 | 78 | 1020.0 |
| 20260903053502 | 63 | 2.0 | 0.0 | 0.00 | 0.00 | 0.00 | 83 | 1020.0 | |
| 20260903050503 | 63 | 270 | 3.0 | 0.0 | 0.00 | 0.00 | 0.00 | 83 | 1020.0 |
| 20260903043502 | 64 | 200 | 3.0 | 0.0 | 0.00 | 0.00 | 0.00 | 73 | 1019.0 |
| 20260903040502 | 61 | 310 | 8.0 | 0.0 | 0.00 | 0.00 | 0.00 | 83 | 1019.0 |